Time,TemperatureF,DewpointF,PressureIn,WindDirection,WindDirectionDegrees,WindSpeedMPH,WindSpeedGustMPH,Humidity,HourlyPrecipIn,Conditions,Clouds,dailyrainin,SoftwareType,DateUTC
2013-04-16 00:02:00,38.0,28.0,-100.00,WNW,285,19.0,26.0,71,0.00,,,0.00,,2013-04-16 00:02:00,
2013-04-16 00:12:00,38.0,28.0,-100.00,West,275,17.0,24.0,72,0.00,,,0.00,,2013-04-16 00:12:00,
2013-04-16 00:22:00,37.0,28.0,-100.00,WNW,290,15.0,22.0,72,0.00,,,0.00,,2013-04-16 00:22:00,
2013-04-16 00:32:00,37.0,30.0,-100.00,WNW,295,13.0,21.0,74,0.00,,,0.00,,2013-04-16 00:32:00,
2013-04-16 00:42:00,37.0,28.0,-100.00,WNW,290,14.0,20.0,73,0.00,,,0.00,,2013-04-16 00:42:00,
2013-04-16 00:52:00,37.0,30.0,-100.00,WNW,285,12.0,17.0,75,0.00,,,0.00,,2013-04-16 00:52:00,
2013-04-16 01:02:00,36.0,28.0,-100.00,WNW,285,16.0,21.0,75,0.00,,,0.00,,2013-04-16 01:02:00,
2013-04-16 01:12:00,36.0,28.0,-100.00,West,275,12.0,19.0,75,0.00,,,0.00,,2013-04-16 01:12:00,
2013-04-16 01:22:00,36.0,28.0,-100.00,West,270,8.0,14.0,76,0.00,,,0.00,,2013-04-16 01:22:00,
2013-04-16 01:32:00,35.0,28.0,-100.00,West,265,9.0,16.0,78,0.00,,,0.00,,2013-04-16 01:32:00,
2013-04-16 01:42:00,35.0,28.0,-100.00,West,280,9.0,12.0,80,0.00,,,0.00,,2013-04-16 01:42:00,
2013-04-16 01:52:00,34.0,30.0,-100.00,WSW,255,7.0,10.0,82,0.00,,,0.00,,2013-04-16 01:52:00,
2013-04-16 02:02:00,34.0,30.0,-100.00,WSW,245,7.0,10.0,84,0.00,,,0.00,,2013-04-16 02:02:00,
2013-04-16 02:12:00,34.0,30.0,-100.00,SW,235,6.0,10.0,84,0.00,,,0.00,,2013-04-16 02:12:00,
2013-04-16 02:22:00,34.0,30.0,-100.00,WSW,245,7.0,10.0,86,0.00,,,0.00,,2013-04-16 02:22:00,
2013-04-16 02:32:00,33.0,30.0,-100.00,SW,235,7.0,9.0,87,0.00,,,0.00,,2013-04-16 02:32:00,
2013-04-16 02:42:00,34.0,30.0,-100.00,SW,235,7.0,11.0,85,0.00,,,0.00,,2013-04-16 02:42:00,
2013-04-16 02:52:00,34.0,30.0,-100.00,WSW,245,8.0,11.0,84,0.00,,,0.00,,2013-04-16 02:52:00,
2013-04-16 03:02:00,34.0,30.0,-100.00,SW,235,9.0,11.0,85,0.00,,,0.00,,2013-04-16 03:02:00,
2013-04-16 03:12:00,34.0,30.0,-100.00,SW,235,9.0,11.0,86,0.00,,,0.00,,2013-04-16 03:12:00,
2013-04-16 03:22:00,34.0,30.0,-100.00,SW,235,9.0,13.0,85,0.00,,,0.00,,2013-04-16 03:22:00,
2013-04-16 03:33:00,34.0,30.0,-100.00,SW,235,10.0,15.0,86,0.00,,,0.00,,2013-04-16 03:33:00,
2013-04-16 03:43:00,34.0,30.0,-100.00,WSW,240,9.0,12.0,86,0.00,,,0.00,,2013-04-16 03:43:00,
2013-04-16 03:52:00,34.0,30.0,-100.00,WSW,245,9.0,12.0,87,0.00,,,0.00,,2013-04-16 03:52:00,
2013-04-16 04:03:00,34.0,30.0,-100.00,WSW,240,7.0,12.0,88,0.00,,,0.00,,2013-04-16 04:03:00,
2013-04-16 04:12:00,34.0,30.0,-100.00,WSW,245,10.0,12.0,88,0.00,,,0.00,,2013-04-16 04:12:00,
2013-04-16 04:23:00,34.0,30.0,-100.00,West,260,9.0,13.0,89,0.00,,,0.00,,2013-04-16 04:23:00,
2013-04-16 04:33:00,34.0,30.0,-100.00,West,260,9.0,16.0,89,0.00,,,0.00,,2013-04-16 04:33:00,
2013-04-16 04:42:00,34.0,30.0,-100.00,WSW,255,9.0,14.0,89,0.00,,,0.00,,2013-04-16 04:42:00,
2013-04-16 04:52:00,34.0,30.0,-100.00,West,265,11.0,14.0,89,0.00,,,0.00,,2013-04-16 04:52:00,
2013-04-16 05:02:00,34.0,30.0,-100.00,West,260,12.0,15.0,89,0.00,,,0.00,,2013-04-16 05:02:00,
2013-04-16 05:12:00,34.0,30.0,-100.00,West,275,9.0,15.0,90,0.00,,,0.00,,2013-04-16 05:12:00,
2013-04-16 05:22:00,33.0,30.0,-100.00,West,265,9.0,13.0,90,0.00,,,0.00,,2013-04-16 05:22:00,
2013-04-16 05:32:00,33.0,32.0,-100.00,West,275,9.0,13.0,91,0.00,,,0.00,,2013-04-16 05:32:00,
2013-04-16 05:42:00,33.0,32.0,-100.00,West,260,8.0,13.0,92,0.00,,,0.00,,2013-04-16 05:42:00,
2013-04-16 05:52:00,33.0,32.0,-100.00,West,260,9.0,12.0,92,0.00,,,0.00,,2013-04-16 05:52:00,
2013-04-16 06:02:00,33.0,32.0,-100.00,West,260,6.0,12.0,93,0.00,,,0.00,,2013-04-16 06:02:00,
2013-04-16 06:12:00,33.0,30.0,-100.00,West,265,7.0,12.0,93,0.00,,,0.00,,2013-04-16 06:12:00,
2013-04-16 06:22:00,33.0,32.0,-100.00,West,275,7.0,11.0,94,0.00,,,0.00,,2013-04-16 06:22:00,
2013-04-16 06:32:00,33.0,32.0,-100.00,West,275,6.0,10.0,94,0.00,,,0.00,,2013-04-16 06:32:00,
2013-04-16 06:42:00,33.0,32.0,-100.00,West,270,6.0,11.0,93,0.00,,,0.00,,2013-04-16 06:42:00,
2013-04-16 06:52:00,33.0,32.0,-100.00,West,270,7.0,9.0,94,0.00,,,0.00,,2013-04-16 06:52:00,
2013-04-16 07:02:00,33.0,32.0,-100.00,WNW,285,7.0,9.0,94,0.00,,,0.00,,2013-04-16 07:02:00,
2013-04-16 07:12:00,34.0,32.0,-100.00,WNW,295,9.0,14.0,93,0.00,,,0.00,,2013-04-16 07:12:00,
2013-04-16 07:22:00,33.0,32.0,-100.00,WNW,285,8.0,11.0,92,0.00,,,0.00,,2013-04-16 07:22:00,
2013-04-16 07:32:00,33.0,32.0,-100.00,West,280,7.0,10.0,94,0.00,,,0.00,,2013-04-16 07:32:00,
2013-04-16 07:42:00,33.0,32.0,-100.00,WNW,285,7.0,10.0,95,0.00,,,0.00,,2013-04-16 07:42:00,
2013-04-16 07:53:00,33.0,32.0,-100.00,WNW,285,12.0,15.0,95,0.00,,,0.00,,2013-04-16 07:53:00,
2013-04-16 08:02:00,33.0,32.0,-100.00,WNW,295,9.0,14.0,91,0.00,,,0.00,,2013-04-16 08:02:00,
2013-04-16 08:12:00,33.0,32.0,-100.00,WNW,300,7.0,10.0,92,0.00,,,0.00,,2013-04-16 08:12:00,
2013-04-16 08:22:00,33.0,30.0,-100.00,NW,305,9.0,12.0,91,0.00,,,0.00,,2013-04-16 08:22:00,
2013-04-16 08:32:00,33.0,30.0,-100.00,WNW,295,8.0,13.0,90,0.00,,,0.00,,2013-04-16 08:32:00,
2013-04-16 08:42:00,32.0,30.0,-100.00,WNW,285,8.0,12.0,92,0.00,,,0.00,,2013-04-16 08:42:00,
2013-04-16 08:52:00,32.0,30.0,-100.00,WNW,285,11.0,14.0,93,0.00,,,0.00,,2013-04-16 08:52:00,
2013-04-16 09:02:00,32.0,28.0,-100.00,WNW,285,10.0,15.0,89,0.00,,,0.00,,2013-04-16 09:02:00,
2013-04-16 09:12:00,31.0,28.0,-100.00,WNW,285,7.0,16.0,87,0.00,,,0.00,,2013-04-16 09:12:00,
2013-04-16 09:22:00,31.0,28.0,-100.00,WNW,295,10.0,12.0,88,0.00,,,0.00,,2013-04-16 09:22:00,
2013-04-16 09:33:00,31.0,28.0,-100.00,WNW,295,9.0,12.0,89,0.00,,,0.00,,2013-04-16 09:33:00,
2013-04-16 09:42:00,31.0,28.0,-100.00,NW,305,7.0,12.0,89,0.00,,,0.00,,2013-04-16 09:42:00,
2013-04-16 09:52:00,31.0,28.0,-100.00,WNW,295,8.0,11.0,88,0.00,,,0.00,,2013-04-16 09:52:00,
2013-04-16 10:03:00,31.0,28.0,-100.00,WNW,295,6.0,11.0,88,0.00,,,0.00,,2013-04-16 10:03:00,
2013-04-16 10:13:00,31.0,28.0,-100.00,WNW,290,9.0,11.0,89,0.00,,,0.00,,2013-04-16 10:13:00,
2013-04-16 10:22:00,31.0,28.0,-100.00,WNW,295,9.0,12.0,90,0.00,,,0.00,,2013-04-16 10:22:00,
2013-04-16 10:32:00,31.0,28.0,-100.00,WNW,290,7.0,12.0,90,0.00,,,0.00,,2013-04-16 10:32:00,
2013-04-16 10:42:00,31.0,28.0,-100.00,WNW,290,11.0,14.0,89,0.00,,,0.00,,2013-04-16 10:42:00,
2013-04-16 10:52:00,31.0,28.0,-100.00,WNW,285,9.0,14.0,89,0.00,,,0.00,,2013-04-16 10:52:00,
2013-04-16 11:02:00,31.0,28.0,-100.00,WNW,300,8.0,13.0,89,0.00,,,0.00,,2013-04-16 11:02:00,
2013-04-16 11:12:00,31.0,28.0,-100.00,WNW,295,9.0,12.0,89,0.00,,,0.00,,2013-04-16 11:12:00,
2013-04-16 11:22:00,31.0,28.0,-100.00,WNW,290,11.0,13.0,89,0.00,,,0.00,,2013-04-16 11:22:00,
2013-04-16 11:32:00,31.0,28.0,-100.00,WNW,290,7.0,14.0,89,0.00,,,0.00,,2013-04-16 11:32:00,
2013-04-16 11:42:00,31.0,28.0,-100.00,WNW,295,10.0,14.0,88,0.00,,,0.00,,2013-04-16 11:42:00,
2013-04-16 11:52:00,31.0,28.0,-100.00,WNW,300,9.0,15.0,87,0.00,,,0.00,,2013-04-16 11:52:00,
2013-04-16 12:02:00,31.0,28.0,-100.00,WNW,285,9.0,14.0,87,0.00,,,0.00,,2013-04-16 12:02:00,
2013-04-16 12:12:00,31.0,28.0,-100.00,WNW,295,9.0,13.0,87,0.00,,,0.00,,2013-04-16 12:12:00,
2013-04-16 12:22:00,31.0,28.0,-100.00,WNW,300,9.0,12.0,87,0.00,,,0.00,,2013-04-16 12:22:00,
2013-04-16 12:32:00,32.0,28.0,-100.00,NW,305,9.0,15.0,86,0.00,,,0.00,,2013-04-16 12:32:00,
2013-04-16 12:42:00,32.0,28.0,-100.00,WNW,300,9.0,15.0,85,0.00,,,0.00,,2013-04-16 12:42:00,
2013-04-16 12:52:00,32.0,28.0,-100.00,NW,310,9.0,15.0,84,0.00,,,0.00,,2013-04-16 12:52:00,
2013-04-16 13:02:00,33.0,28.0,-100.00,NW,315,8.0,14.0,83,0.00,,,0.00,,2013-04-16 13:02:00,
2013-04-16 13:12:00,33.0,28.0,-100.00,WNW,285,11.0,14.0,82,0.00,,,0.00,,2013-04-16 13:12:00,
2013-04-16 13:22:00,33.0,28.0,-100.00,WNW,300,12.0,16.0,81,0.00,,,0.00,,2013-04-16 13:22:00,
2013-04-16 13:32:00,33.0,28.0,-100.00,NW,305,13.0,18.0,80,0.00,,,0.00,,2013-04-16 13:32:00,
2013-04-16 13:42:00,33.0,28.0,-100.00,NW,315,14.0,19.0,79,0.00,,,0.00,,2013-04-16 13:42:00,
2013-04-16 13:52:00,34.0,28.0,-100.00,NW,310,13.0,18.0,79,0.00,,,0.00,,2013-04-16 13:52:00,
2013-04-16 14:02:00,34.0,28.0,-100.00,NW,320,16.0,20.0,79,0.00,,,0.00,,2013-04-16 14:02:00,
2013-04-16 14:12:00,34.0,28.0,-100.00,NW,315,17.0,22.0,78,0.00,,,0.00,,2013-04-16 14:12:00,
2013-04-16 14:22:00,34.0,28.0,-100.00,NNW,330,16.0,22.0,77,0.00,,,0.00,,2013-04-16 14:22:00,
2013-04-16 14:32:00,35.0,28.0,-100.00,NW,305,14.0,22.0,78,0.00,,,0.00,,2013-04-16 14:32:00,
2013-04-16 14:42:00,35.0,28.0,-100.00,NW,315,14.0,19.0,76,0.00,,,0.00,,2013-04-16 14:42:00,
2013-04-16 14:52:00,35.0,28.0,-100.00,NW,320,16.0,19.0,75,0.00,,,0.00,,2013-04-16 14:52:00,
2013-04-16 15:02:00,35.0,27.0,-100.00,NW,320,17.0,20.0,72,0.00,,,0.00,,2013-04-16 15:02:00,
2013-04-16 15:12:00,36.0,28.0,-100.00,NW,310,16.0,21.0,74,0.00,,,0.00,,2013-04-16 15:12:00,
2013-04-16 15:22:00,36.0,28.0,-100.00,NW,315,13.0,21.0,72,0.00,,,0.00,,2013-04-16 15:22:00,
2013-04-16 15:32:00,36.0,28.0,-100.00,NW,310,13.0,19.0,71,0.00,,,0.00,,2013-04-16 15:32:00,
2013-04-16 15:43:00,38.0,28.0,-100.00,NW,310,12.0,18.0,67,0.00,,,0.00,,2013-04-16 15:43:00,
2013-04-16 15:52:00,37.0,28.0,-100.00,WNW,300,12.0,19.0,70,0.00,,,0.00,,2013-04-16 15:52:00,
2013-04-16 16:03:00,37.0,28.0,-100.00,NW,310,11.0,18.0,70,0.00,,,0.00,,2013-04-16 16:03:00,
2013-04-16 16:13:00,38.0,28.0,-100.00,NW,320,16.0,19.0,68,0.00,,,0.00,,2013-04-16 16:13:00,
2013-04-16 16:23:00,38.0,28.0,-100.00,WNW,285,11.0,18.0,67,0.00,,,0.00,,2013-04-16 16:23:00,
2013-04-16 16:32:00,38.0,27.0,-100.00,NW,310,10.0,18.0,65,0.00,,,0.00,,2013-04-16 16:32:00,
2013-04-16 16:42:00,38.0,28.0,-100.00,NW,310,11.0,18.0,69,0.00,,,0.00,,2013-04-16 16:42:00,
2013-04-16 16:52:00,39.0,27.0,-100.00,NW,315,11.0,20.0,61,0.00,,,0.00,,2013-04-16 16:52:00,
2013-04-16 17:02:00,38.0,27.0,-100.00,WNW,300,12.0,17.0,64,0.00,,,0.00,,2013-04-16 17:02:00,
2013-04-16 17:12:00,39.0,28.0,-100.00,NNW,330,7.0,16.0,63,0.00,,,0.00,,2013-04-16 17:12:00,
2013-04-16 17:22:00,38.0,28.0,-100.00,NW,315,10.0,14.0,67,0.00,,,0.00,,2013-04-16 17:22:00,
2013-04-16 17:32:00,40.0,28.0,-100.00,NW,310,9.0,16.0,63,0.00,,,0.00,,2013-04-16 17:32:00,
2013-04-16 17:43:00,39.0,28.0,-100.00,NNW,335,11.0,16.0,67,0.00,,,0.00,,2013-04-16 17:43:00,
2013-04-16 17:52:00,40.0,30.0,-100.00,NNW,345,12.0,15.0,65,0.00,,,0.00,,2013-04-16 17:52:00,
2013-04-16 18:02:00,40.0,30.0,-100.00,NW,325,9.0,16.0,68,0.00,,,0.00,,2013-04-16 18:02:00,
2013-04-16 18:12:00,41.0,30.0,-100.00,North,355,8.0,16.0,64,0.00,,,0.00,,2013-04-16 18:12:00,
2013-04-16 18:22:00,40.0,28.0,-100.00,North,0,9.0,17.0,63,0.00,,,0.00,,2013-04-16 18:22:00,
2013-04-16 18:32:00,42.0,28.0,-100.00,NNW,330,12.0,17.0,59,0.00,,,0.00,,2013-04-16 18:32:00,
2013-04-16 18:42:00,43.0,30.0,-100.00,NW,305,9.0,19.0,62,0.00,,,0.00,,2013-04-16 18:42:00,
2013-04-16 18:52:00,42.0,28.0,-100.00,NW,325,10.0,16.0,58,0.00,,,0.00,,2013-04-16 18:52:00,
2013-04-16 19:02:00,41.0,28.0,-100.00,WNW,295,9.0,16.0,60,0.00,,,0.00,,2013-04-16 19:02:00,
2013-04-16 19:12:00,42.0,28.0,-100.00,NNW,340,10.0,17.0,59,0.00,,,0.00,,2013-04-16 19:12:00,
2013-04-16 19:22:00,43.0,28.0,-100.00,NW,320,10.0,15.0,55,0.00,,,0.00,,2013-04-16 19:22:00,
2013-04-16 19:32:00,43.0,30.0,-100.00,NNW,330,10.0,14.0,59,0.00,,,0.00,,2013-04-16 19:32:00,
2013-04-16 19:42:00,43.0,28.0,-100.00,NNW,345,11.0,14.0,57,0.00,,,0.00,,2013-04-16 19:42:00,
2013-04-16 19:52:00,44.0,28.0,-100.00,NNW,345,8.0,15.0,55,0.00,,,0.00,,2013-04-16 19:52:00,
2013-04-16 20:02:00,44.0,30.0,-100.00,North,0,9.0,16.0,58,0.00,,,0.00,,2013-04-16 20:02:00,
2013-04-16 20:12:00,43.0,28.0,-100.00,NNW,330,4.0,14.0,56,0.00,,,0.00,,2013-04-16 20:12:00,
2013-04-16 20:22:00,47.0,30.0,-100.00,North,10,7.0,13.0,51,0.00,,,0.00,,2013-04-16 20:22:00,
2013-04-16 20:32:00,46.0,32.0,-100.00,NNW,330,9.0,13.0,56,0.00,,,0.00,,2013-04-16 20:32:00,
2013-04-16 20:42:00,45.0,30.0,-100.00,North,0,11.0,14.0,55,0.00,,,0.00,,2013-04-16 20:42:00,
2013-04-16 20:52:00,45.0,30.0,-100.00,North,350,7.0,15.0,57,0.00,,,0.00,,2013-04-16 20:52:00,
2013-04-16 21:02:00,45.0,28.0,-100.00,NNW,340,14.0,18.0,51,0.00,,,0.00,,2013-04-16 21:02:00,
2013-04-16 21:12:00,46.0,30.0,-100.00,NNE,20,8.0,14.0,52,0.00,,,0.00,,2013-04-16 21:12:00,
2013-04-16 21:22:00,46.0,30.0,-100.00,North,355,7.0,14.0,53,0.00,,,0.00,,2013-04-16 21:22:00,
2013-04-16 21:32:00,44.0,28.0,-100.00,North,0,8.0,14.0,55,0.00,,,0.00,,2013-04-16 21:32:00,
2013-04-16 21:43:00,45.0,28.0,-100.00,North,0,6.0,11.0,53,0.00,,,0.00,,2013-04-16 21:43:00,
2013-04-16 21:52:00,45.0,28.0,-100.00,NNE,30,7.0,12.0,53,0.00,,,0.00,,2013-04-16 21:52:00,
2013-04-16 22:02:00,46.0,30.0,-100.00,North,0,7.0,13.0,54,0.00,,,0.00,,2013-04-16 22:02:00,
2013-04-16 22:13:00,45.0,28.0,-100.00,North,0,7.0,12.0,52,0.00,,,0.00,,2013-04-16 22:13:00,
2013-04-16 22:22:00,45.0,28.0,-100.00,NNW,335,10.0,15.0,52,0.00,,,0.00,,2013-04-16 22:22:00,
2013-04-16 22:32:00,45.0,28.0,-100.00,NNW,345,5.0,12.0,53,0.00,,,0.00,,2013-04-16 22:32:00,
2013-04-16 22:42:00,45.0,28.0,-100.00,North,350,9.0,15.0,50,0.00,,,0.00,,2013-04-16 22:42:00,
2013-04-16 22:52:00,45.0,28.0,-100.00,NNW,345,13.0,17.0,50,0.00,,,0.00,,2013-04-16 22:52:00,
2013-04-16 23:02:00,46.0,27.0,-100.00,North,0,9.0,14.0,47,0.00,,,0.00,,2013-04-16 23:02:00,
2013-04-16 23:12:00,45.0,28.0,-100.00,North,350,9.0,16.0,51,0.00,,,0.00,,2013-04-16 23:12:00,
2013-04-16 23:22:00,45.0,27.0,-100.00,North,0,9.0,14.0,48,0.00,,,0.00,,2013-04-16 23:22:00,
2013-04-16 23:32:00,45.0,28.0,-100.00,NNW,340,9.0,14.0,51,0.00,,,0.00,,2013-04-16 23:32:00,
2013-04-16 23:42:00,45.0,28.0,-100.00,North,0,9.0,15.0,52,0.00,,,0.00,,2013-04-16 23:42:00,
2013-04-16 23:52:00,45.0,28.0,-100.00,North,0,7.0,14.0,54,0.00,,,0.00,,2013-04-16 23:52:00,